Weather History for GMML - January, 2014

Change the Weather History Date:

Tuesday, January 28, 2014

  Actual Average Record
Temperature  
Mean Temperature 64 °F -  
Max Temperature 68 °F - - ()
Min Temperature 60 °F - - ()
Degree Days  
Heating Degree Days 1    
Growing Degree Days 14 (Base 50)    
Moisture  
Dew Point 52 °F    
Average Humidity 67    
Maximum Humidity 72    
Minimum Humidity 59    
Precipitation  
Precipitation 0.00 in - - ()
Sea Level Pressure  
Sea Level Pressure 30.08 in    
Wind  
Wind Speed 13 mph ()    
Max Wind Speed 21 mph    
Max Gust Speed -    
Visibility 5.6 miles    
Events      
T = Trace of Precipitation, MM = Missing Value Source: Averaged Metar Reports

Daily Weather History Graph

Daily Weather History Graph

Search for Another Location

Airport or City:

Trip Planner

Search our weather history database for the weather conditions in past years. The results will help you decide how hot, cold, wet, or windy it might be!

Date:

Astronomy

Jan. 28, 2014 Rise Set
Actual Time 7:40 AM WET 6:31 PM WET
Civil Twilight 7:16 AM WET 6:55 PM WET
Nautical Twilight 6:48 AM WET 7:23 PM WET
Astronomical Twilight 6:20 AM WET 7:51 PM WET
Moon 5:06 AM WET (1/28) 4:10 PM WET (1/28)
Length of Visible Light 11h 39m
Length of Day
10h 50m
Waning Crescent, 9% of the Moon is Illuminated
Jan 28
Waning Crescent
Jan 30
New
Feb 6
First Quarter
Feb 14
Full
Feb 22
Last Quarter

Hourly Weather History & Observations

Time (WET) Temp. Dew Point Humidity Pressure Visibility Wind Dir Wind Speed Gust Speed Precip Events Conditions
12:00 AM 60.8 °F 51.8 °F 72% 30.18 in 5.0 mi NE 13.8 mph - N/A   Mostly Cloudy
1:00 AM 60.8 °F 51.8 °F 72% 30.15 in 5.0 mi NE 16.1 mph - N/A   Mostly Cloudy
2:00 AM 60.8 °F 51.8 °F 72% 30.15 in 5.0 mi NE 13.8 mph - N/A   Mostly Cloudy
3:00 AM 60.8 °F 51.8 °F 72% 30.15 in 3.7 mi NE 13.8 mph - N/A   Mostly Cloudy
5:00 AM 60.8 °F 50.0 °F 68% 30.09 in 5.0 mi NE 11.5 mph - N/A   Mostly Cloudy
6:00 AM 60.8 °F 51.8 °F 72% 30.09 in 3.7 mi NE 11.5 mph - N/A   Mostly Cloudy
7:00 AM 60.8 °F 51.8 °F 72% 30.09 in 5.0 mi NE 12.7 mph - N/A   Mostly Cloudy
8:00 AM 60.8 °F 51.8 °F 72% 30.09 in 5.0 mi NE 15.0 mph - N/A   Mostly Cloudy
9:00 AM 60.8 °F 51.8 °F 72% 30.09 in 5.0 mi NE 13.8 mph - N/A   Overcast
10:00 AM 62.6 °F 51.8 °F 68% 30.12 in 6.2 mi NE 10.4 mph - N/A   Mostly Cloudy
11:00 AM 64.4 °F 53.6 °F 68% 30.12 in 6.2 mi NE 15.0 mph - N/A   Mostly Cloudy
12:00 PM 66.2 °F 53.6 °F 64% 30.12 in 6.2 mi NE 19.6 mph - N/A   Mostly Cloudy
1:00 PM 66.2 °F 53.6 °F 64% 30.09 in 6.2 mi NNE 15.0 mph - N/A   Mostly Cloudy
2:00 PM 66.2 °F 53.6 °F 64% 30.06 in 6.2 mi NNE 17.3 mph - N/A   Mostly Cloudy
3:00 PM 68.0 °F 53.6 °F 60% 30.01 in 6.2 mi NNE 18.4 mph - N/A   Mostly Cloudy
4:00 PM 66.2 °F 51.8 °F 60% 30.04 in 6.2 mi NNE 16.1 mph - N/A   Mostly Cloudy
5:00 PM 64.4 °F 51.8 °F 64% 30.04 in 6.2 mi North 17.3 mph - N/A   Mostly Cloudy
6:00 PM 64.4 °F 50.0 °F 59% 30.01 in 6.2 mi NNE 20.7 mph - N/A   Mostly Cloudy
7:00 PM 62.6 °F 50.0 °F 63% 30.01 in 6.2 mi NNE 17.3 mph - N/A   Mostly Cloudy
8:00 PM 62.6 °F 50.0 °F 63% 30.01 in 6.2 mi NNE 18.4 mph - N/A   Mostly Cloudy
9:00 PM 60.8 °F 50.0 °F 68% 30.04 in 6.2 mi NNE 18.4 mph - N/A   Mostly Cloudy
10:00 PM 60.8 °F 48.2 °F 63% 30.04 in 6.2 mi NE 16.1 mph - N/A   Mostly Cloudy
11:00 PM 60.8 °F 50.0 °F 68% 30.04 in 6.2 mi NE 17.3 mph - N/A   Scattered Clouds